Location: Blanot
(47.1713°N, 4.2340°E)
Time: 21:00:50
(UTC+00:00)

Lacrosse 5 - Pass Details

Date: 14 July 2020
Orbit: 717 x 720 km, 57.0° (Epoch: 11 August)

Event Time Altitude Azimuth Distance (km) Brightness Sun altitude
Exits shadow 01:49:49 - 270° (W) 2,704 4.6 -16.0°
Reaches altitude 10° 01:51:14 10° 276° (W) 2,202 4.1 -15.9°
Maximum altitude 01:55:52 34° 342° (NNW) 1,167 3.3 -15.5°
Drops below altitude 10° 02:00:30 10° 47° (NE) 2,207 5.6 -15.1°
Sets 02:03:05 0° 57° (ENE) 3,129 6.4 -14.9°
